User: anonymous
Location: Fisheating Creek Campgrounds
(26.9333°N, 81.3167°W)
Time: 06:21:31
(UTC-04:00)
Language:

Cosmos 2221 Rocket - Orbit

View from above orbital plane
View from above orbital plane
View from above satellite
View from above satellite

Ground track
Ground track

The orbit data is extracted from the following two-line orbital elements,

1 22237U 92080B   14272.74601684  .00000481  00000-0  63450-4 0  4559
2 22237 082.5120 319.8120 0019702 202.4493 296.6919 14.77908742176974
Epoch (UTC): 29 September 2014 17:54:15
Eccentricity: 0.0019702
inclination: 82.5120°
perigee height: 622 km
apogee height: 650 km
right ascension of ascending node: 319.8120°
argument of perigee: 202.4493°
revolutions per day: 14.77908742
mean anomaly at epoch: 296.6919°
orbit number at epoch: 17697

The dashed part of the orbit path shows where the satellite is in the earth's shadow,  

DLR